Location: Châteauvieux
(47.2310°N, 1.3828°E)
Time: 22:43:53
(UTC+00:00)

Cosmos 44 - Pass Details

Date: 15 May 2026
Orbit: 568 x 782 km, 65.1° (Epoch: 11 June)

Event Time Altitude Azimuth Distance (km) Brightness Sun altitude
Rises 22:32:01 0° 321° (NW) 3,276 8.0 -21.4°
Reaches altitude 10° 22:34:29 10° 319° (NW) 2,339 7.0 -21.5°
Maximum altitude 22:39:51 70° 237° (WSW) 814 3.5 -21.8°
Enters shadow 22:41:02 52° 175° (S) 944 3.5 -21.9°
